Location: Burgwalden
(48.2830°N, 10.7576°E)
Time: 03:16:21
(UTC+00:00)

ATLAS 2AS CENTAUR R/B - Pass Details

Date: 26 September 2023
Orbit: 1000 x 1211 km, 63.7° (Epoch: 02 December)

Event Time Altitude Azimuth Distance (km) Brightness Sun altitude
Exits shadow 03:33:15 23° 241° (WSW) 2,303 3.8 -16.5°
Maximum altitude 03:38:13 63° 316° (NW) 1,284 3.0 -15.7°
Drops below altitude 10° 03:45:22 10° 38° (NE) 3,006 5.9 -14.5°
Sets 03:48:03 0° 42° (NE) 3,936 6.7 -14.1°
